Home   Weather   The Settlement   Past weeks

Flag for Christmas Island Past Weather in The Settlement, Christmas Island — Yesterday and Last 2 Weeks

Now
72 °F

Drizzle. Mostly cloudy.


Feels Like: 67 °F
Forecast: 75 / 76 °F
Wind: 17 mph from Southeast

Location: Christmas Island Aerodrome

Current Time: Jul 24, 2017 at 1:51:15 am

Latest Report: Jul 24, 2017 at 1:20 am


Visibility: 4 mi

Pressure: 29.98 "Hg

Humidity: 94%

Dew Point: 70 °F

Location of The SettlementLocation

Past Weather in The Settlement — Graph

°F

The Settlement Temperature Yesterday

Maximum temperature yesterday: 75 °F (at 12:30 pm)
Minimum temperature yesterday: 72 °F (at 12:00 am)
Average temperature yesterday: 73 °F

High & Low Weather Summary for the Past Weeks

 TemperatureHumidityPressure
High79 °F (Jul 9, 9:00 am)100% (Jul 21, 12:30 am)30.04 "Hg (Jul 21, 12:30 am)
Low70 °F (Jul 17, 2:03 pm)65% (Jul 12, 10:30 am)29.89 "Hg (Jul 17, 2:30 pm)
Average75 °F83%29.97 "Hg
* Reported Jul 9 12:00 am — Jul 24 12:30 am, The Settlement. Weather by CustomWeather, © 2017

Note: Actual official high and low records may vary slightly from our data, if they occured in-between our weather recording intervals... More about our weather records

Advertising

The Settlement Weather History for the Previous 24 Hours

Scroll right to see more
 ConditionsComfort  
Time TempWeatherWind HumidityBarometerVisibility
12:30 am
Mon, Jul 24
72 °FMostly cloudy.16 mph94%29.98 "HgN/A
12:00 am72 °FMostly cloudy.13 mph94%29.98 "HgN/A
11:40 pm
Sun, Jul 23
72 °FSprinkles. Overcast.16 mph94%29.98 "Hg4 mi
10:31 pm72 °FSprinkles. Low clouds.17 mph94%29.98 "Hg1 mi
10:03 pm72 °FSprinkles. Overcast.16 mph94%29.98 "Hg4 mi
9:37 pm72 °FSprinkles. Overcast.16 mph94%29.98 "Hg6 mi
9:09 pm73 °FLight rain. Mostly cloudy.15 mph94%29.98 "Hg4 mi
8:30 pm72 °FOvercast.16 mph94%29.98 "HgN/A
8:05 pm72 °FOvercast.16 mph94%29.98 "HgN/A
7:35 pm72 °FSprinkles. Mostly cloudy.15 mph100%29.98 "Hg1 mi
7:00 pm72 °FMostly cloudy.15 mph100%29.95 "HgN/A
6:30 pm72 °FLow clouds.16 mph100%29.95 "HgN/A
6:00 pm72 °FLight rain. Low clouds.15 mph100%29.95 "Hg3 mi
5:43 pm72 °FLight rain. Low clouds.17 mph100%29.95 "Hg0 mi
5:15 pm72 °FRain showers. Low clouds.16 mph100%29.92 "Hg0 mi
5:05 pm73 °FRain showers. Mostly cloudy.15 mph94%29.92 "Hg0 mi
4:30 pm73 °FSprinkles. Mostly cloudy.14 mph94%29.92 "Hg2 mi
4:00 pm73 °FSprinkles. Low clouds.15 mph94%29.92 "Hg1 mi
3:41 pm73 °FSprinkles. Mostly cloudy.14 mph94%29.92 "Hg0 mi
3:00 pm73 °FMostly cloudy.13 mph94%29.92 "HgN/A
2:40 pm72 °FSprinkles. Mostly cloudy.15 mph100%29.92 "Hg4 mi
2:16 pm72 °FSprinkles. Low clouds.14 mph100%29.92 "Hg0 mi
1:42 pm73 °FSprinkles. Cloudy.15 mph94%29.95 "Hg1 mi
12:30 pm75 °FMostly cloudy.15 mph89%29.98 "HgN/A
12:00 pm73 °FSprinkles. Mostly cloudy.16 mph94%29.98 "HgN/A
11:30 am73 °FMostly cloudy.14 mph94%29.98 "HgN/A
11:26 am73 °FMostly cloudy.14 mph94%29.98 "HgN/A
11:10 am73 °FMore clouds than sun.16 mph94%29.98 "Hg4 mi
10:40 am73 °FCloudy.15 mph94%30.01 "HgN/A
9:43 am73 °FSprinkles. Mostly cloudy.15 mph94%30.01 "HgN/A
9:30 am73 °FSprinkles. Mostly cloudy.14 mph100%30.01 "Hg3 mi
8:30 am73 °FMostly cloudy.15 mph94%30.01 "HgN/A
8:00 am73 °FMostly cloudy.15 mph94%30.01 "HgN/A
7:30 am73 °FMostly cloudy.15 mph94%29.98 "HgN/A
7:00 am73 °FMostly cloudy.17 mph94%29.98 "HgN/A
6:30 am73 °FMostly cloudy.16 mph94%29.98 "HgN/A
6:00 am73 °FMostly cloudy.14 mph94%29.95 "Hg5 mi
5:30 am73 °FLow clouds.13 mph94%29.95 "Hg5 mi
5:00 am73 °FLow clouds.15 mph94%29.95 "Hg4 mi
4:35 am73 °FLow clouds.14 mph94%29.95 "Hg4 mi
4:02 am73 °FMostly cloudy.13 mph94%29.95 "HgN/A
3:26 am73 °FLow clouds.13 mph94%29.95 "Hg4 mi
3:00 am73 °FMostly cloudy.10 mph94%29.95 "HgN/A
2:30 am73 °FLow clouds.13 mph94%29.95 "HgN/A
2:00 am73 °FMostly cloudy.13 mph94%29.98 "HgN/A
1:42 am73 °FMostly cloudy.14 mph94%29.98 "Hg4 mi
1:30 am73 °FLow clouds.13 mph94%29.98 "HgN/A
1:00 am73 °FSprinkles. Low clouds.10 mph94%29.98 "Hg4 mi
Weather by CustomWeather, © 2017

See weather overviewHow to use our weather pages